Puerto Barrios Airport
MGPB : now visible

Airfield :











YOU CAN JOIN US ON...

 
LOGIN :

Register | Disclaimer

   EN    FR    IT 

 









Legend :    VFR   Marginal VFR   IFR   Intensive IFR   Very Intensive IFR
Visi :
Ceiling :
>= 8 km
>= 3000ft
5 to 8 km
1000 to 3000 ft
1500m to 5 km
500 to 1000 ft
800 to 1500m
200 to 500 ft
< 800m
< 200 ft
Symbols :   Thunderstorms  Fog  Heavy snow  Heavy precipitations  Wind > 20 kt






- Airport Elevation : 33 ft
- IATA code : PBR


MGPB - Puerto Barrios

CURRENT METAR :
  • 201300Z 12004KT 9999 FEW018 SCT200 25/24 Q1011 A2985

EXPIRED METARs :
  • 201200Z 00000KT 9999 FEW018 SCT200 24/24 Q1011 A2985

TAF TAF MGPB
Valid from the 20 at 12:00 until the 21 at 12:00 UTC


201100Z 2012/2112 00000KT 9999 SCT016 TX32/2020Z TN23/2012Z
PROB30 2009/2012 8000 TSRA SCT020TCU FEW025CB
BECMG 2015/2017 36008KT FEW018
TEMPO 2020/2103 8000 TSRA SCT020TCU FEW025CB
BECMG 2101/2103 00000KT SCT016 BKN080
MHTG FIR / North America



MET'MAP, your aeronautical weather chart ! - Copyright ORBIFLY December 2007 - Disclaimer

ORBIFLY MET'MAP TEAM :

Programming & Development : Alexandra Zaïnal
Concept & original design : Baudouin d'Aumeries
Assistance for programming : Marc-Olivier Méhu
Technical & hardware support : Manuel Goepfert

Contact : metmap@orbifly.com




SOURCES & CREDITS :

   NOAA       Earth
Advisory